Doha, Qatar

8:02 PM AST on February 06, 2016 (GMT +0300)
Doha International

Weather History for OTBD - September, 2013

Change the Weather History Date:

Tuesday, September 10, 2013

  Actual Average Record
Temperature  
Mean Temperature 94 °F -  
Max Temperature 99 °F 99 °F 109 °F (2008)
Min Temperature 89 °F 78 °F 82 °F (1997)
Cooling Degree Days 29    
Growing Degree Days 44 (Base 50)    
Moisture  
Dew Point 80 °F    
Average Humidity 65    
Maximum Humidity 79    
Minimum Humidity 47    
Precipitation  
Precipitation 0.00 in 0.00 in - ()
Sea Level Pressure  
Sea Level Pressure 29.69 in    
Wind  
Wind Speed 6 mph ()    
Max Wind Speed 10 mph    
Max Gust Speed -    
Visibility 4.6 miles    
Events      
Averages and records for this station are not official NWS values.
T = Trace of Precipitation, MM = Missing Value Source: Averaged Metar Reports

Daily Weather History Graph

Daily Weather History Graph

Search for Another Location

Airport or City:

Trip Planner

Search our weather history database for the weather conditions in past years. The results will help you decide how hot, cold, wet, or windy it might be!

Date:

Astronomy

Sep. 10, 2013 Rise Set
Actual Time 5:17 AM AST 5:43 PM AST
Civil Twilight 4:54 AM AST 6:06 PM AST
Nautical Twilight 4:27 AM AST 6:33 PM AST
Astronomical Twilight 4:00 AM AST 7:00 PM AST
Moon 9:44 AM AST (9/10) 9:02 PM AST (9/10)
Length of Visible Light 13h 11m
Length of Day
12h 25m
Waxing Crescent, 25% of the Moon is Illuminated
Sep 10
Waxing Crescent
Sep 12
First Quarter
Sep 19
Full
Sep 27
Last Quarter
Oct 5
New

Hourly Weather History & Observations

Time (AST) Temp. Heat Index Dew Point Humidity Pressure Visibility Wind Dir Wind Speed Gust Speed Precip Events Conditions
12:00 AM 91.4 °F 107.2 °F 78.8 °F 66% 29.68 in - ENE 5.8 mph - N/A   Clear
12:30 AM 89.6 °F 104.7 °F 78.8 °F 70% 29.68 in - East 5.8 mph - N/A   Clear
1:00 AM 91.4 °F 107.2 °F 78.8 °F 66% 29.68 in - East 5.8 mph - N/A   Clear
1:30 AM 91.4 °F 111.0 °F 80.6 °F 71% 29.68 in - ENE 5.8 mph - N/A   Clear
2:00 AM 91.4 °F 111.0 °F 80.6 °F 71% 29.68 in - ENE 5.8 mph - N/A   Clear
2:30 AM 91.4 °F 111.0 °F 80.6 °F 71% 29.68 in 5.6 mi ENE 5.8 mph - N/A   Unknown
3:00 AM 90 °F - 80 °F 67% 29.71 in 6 mi NE 3.5 mph - -   Haze
3:00 AM 89.6 °F 108.2 °F 80.6 °F 75% 29.68 in 5.6 mi NE 3.5 mph - N/A   Unknown
3:30 AM 89.6 °F 108.2 °F 80.6 °F 75% 29.71 in 5.0 mi NE 5.8 mph - N/A   Unknown
4:00 AM 89.6 °F 108.2 °F 80.6 °F 75% 29.71 in 4.3 mi East 5.8 mph - N/A   Unknown
4:30 AM 89.6 °F 111.1 °F 82.4 °F 79% 29.71 in 4.3 mi East 4.6 mph - N/A   Unknown
5:00 AM 89.6 °F 111.1 °F 82.4 °F 79% 29.71 in 3.7 mi East 4.6 mph - N/A   Unknown
5:30 AM 89.6 °F 111.1 °F 82.4 °F 79% 29.71 in 3.7 mi NE 4.6 mph - N/A   Unknown
6:00 AM 89.6 °F 111.1 °F 82.4 °F 79% 29.71 in 3.7 mi NE 4.6 mph - N/A   Unknown
6:30 AM 91.4 °F 114.3 °F 82.4 °F 75% 29.74 in 3.7 mi NNE 5.8 mph - N/A   Unknown
7:00 AM 93.2 °F 117.1 °F 82.4 °F 71% 29.74 in 4.3 mi NNE 6.9 mph - N/A   Unknown
8:00 AM 95.0 °F 119.6 °F 82.4 °F 67% 29.77 in 4.3 mi NE 8.1 mph - N/A   Unknown
9:00 AM 96 °F - 81 °F 54% 29.78 in 4 mi ESE 4.6 mph - -   Haze
9:00 AM 96.8 °F 118.6 °F 80.6 °F 60% 29.77 in 4.3 mi ESE 4.6 mph - N/A   Partly Cloudy
10:00 AM 96.8 °F 118.6 °F 80.6 °F 60% 29.74 in 4.3 mi NE 3.5 mph - N/A   Unknown
11:00 AM 98.6 °F 124.6 °F 82.4 °F 60% 29.74 in 4.3 mi East 8.1 mph - N/A   Unknown
12:00 PM 98.6 °F 120.3 °F 80.6 °F 56% 29.71 in 4.3 mi ENE 8.1 mph - N/A   Unknown
1:00 PM 96.8 °F 121.7 °F 82.4 °F 63% 29.68 in 4.3 mi ENE 6.9 mph - N/A   Unknown
2:00 PM 98.6 °F 120.3 °F 80.6 °F 56% 29.68 in 3.7 mi NE 9.2 mph - N/A   Unknown
2:30 PM 96.8 °F 118.6 °F 80.6 °F 60% 29.65 in 3.7 mi NE 9.2 mph - N/A   Unknown
3:00 PM 96.8 °F 118.6 °F 80.6 °F 60% 29.65 in 4.3 mi ENE 9.2 mph - N/A   Unknown
3:30 PM 96.8 °F 121.7 °F 82.4 °F 63% 29.65 in 4.3 mi ENE 8.1 mph - N/A   Unknown
4:00 PM 96.8 °F 118.6 °F 80.6 °F 60% 29.65 in 4.3 mi ENE 10.4 mph - N/A   Unknown
4:30 PM 95.0 °F 115.8 °F 80.6 °F 63% 29.65 in 4.3 mi ENE 10.4 mph - N/A   Unknown
5:00 PM 95.0 °F 119.6 °F 82.4 °F 67% 29.65 in 4.3 mi NE 9.2 mph - N/A   Unknown
6:00 PM 93.2 °F 117.1 °F 82.4 °F 71% 29.68 in 4.3 mi NNE 10.4 mph - N/A   Partly Cloudy
7:00 PM 93.2 °F 107.2 °F 77.0 °F 59% 29.68 in 4.3 mi North 9.2 mph - N/A   Unknown
7:30 PM 93.2 °F 107.2 °F 77.0 °F 59% 29.68 in 5.0 mi North 10.4 mph - N/A   Unknown
8:00 PM 93.2 °F 107.2 °F 77.0 °F 59% 29.68 in 5.0 mi North 8.1 mph - N/A   Unknown
8:30 PM 93.2 °F 105.0 °F 75.2 °F 56% 29.68 in 5.6 mi NNE 8.1 mph - N/A   Unknown
9:00 PM 93 °F - 75 °F 47% 29.69 in 6 mi North 9.2 mph - -   Haze
9:00 PM 93.2 °F 105.0 °F 75.2 °F 56% 29.68 in 5.6 mi North 9.2 mph - N/A   Unknown
9:30 PM 93.2 °F 105.0 °F 75.2 °F 56% 29.68 in 5.6 mi North 8.1 mph - N/A   Unknown
10:00 PM 93.2 °F 107.2 °F 77.0 °F 59% 29.65 in 5.6 mi North 5.8 mph - N/A   Unknown
10:30 PM 91.4 °F 102.5 °F 75.2 °F 59% 29.65 in 5.0 mi North 6.9 mph - N/A   Unknown
11:00 PM 91.4 °F 102.5 °F 75.2 °F 59% 29.65 in 5.6 mi North 6.9 mph - N/A   Unknown